Location: Cisewo
(53.3833°N, 14.9000°E)
Time: 01:57:02
(UTC+00:00)

USA 229 - Pass Details

Date: 07 August 2021
Orbit: 956 x 1256 km, 63.5° (Epoch: 08 August)

Event Time Altitude Azimuth Distance (km) Brightness Sun altitude
Rises 21:03:44 0° 312° (NW) 3,970 8.2 -15.6°
Reaches altitude 10° 21:06:37 10° 303° (WNW) 3,052 7.1 -15.9°
Maximum altitude 21:12:59 33° 243° (WSW) 1,895 5.0 -16.3°
Enters shadow 21:18:16 15° 189° (S) 2,797 5.4 -16.7°
